Weather History for Erie, CO

Change the Weather History Date:

Saturday, January 19, 2013

  Actual Average (KBJC) Record (KBJC)
Temperature  
Mean Temperature 40 °F -  
Max Temperature 61 °F 44 °F 68 °F (1986)
Min Temperature 20 °F 25 °F 4 °F (1985)
Degree Days  
Heating Degree Days 24    
Moisture  
Dew Point 1 °F    
Average Humidity 22    
Maximum Humidity 59    
Minimum Humidity 6    
Precipitation  
Precipitation 0.00 in - - ()
Sea Level Pressure  
Sea Level Pressure 30.15 in    
Wind  
Wind Speed 7 mph (SW)    
Max Wind Speed 18 mph    
Max Gust Speed 26 mph    
Visibility 10 miles    
Events      
Averages and records for this station are not official NWS values.
T = Trace of Precipitation, MM = Missing Value Source: NWS Daily Summary

Daily Weather History Graph

Daily Weather History Graph

Search for Another Location

Airport:

Trip Planner

Search our weather history database for the weather conditions in past years. The results will help you decide how hot, cold, wet, or windy it might be!

Date:

Astronomy

Jan. 19, 2013 Rise Set
Actual Time 7:18 AM MST 5:04 PM MST
Civil Twilight 6:48 AM MST 5:33 PM MST
Nautical Twilight 6:15 AM MST 6:06 PM MST
Astronomical Twilight 5:43 AM MST 6:39 PM MST
Moon 11:31 AM MST (1/19) 12:55 AM MST (1/19)
Length of Visible Light 10h 45m
Length of Day
9h 46m
First Quarter, 58% of the Moon is Illuminated
Jan 19
First Quarter
Jan 26
Full
Feb 3
Last Quarter
Feb 10
New
Feb 17
First Quarter

Hourly Weather History & Observations

Time (MST) Temp. Windchill Dew Point Humidity Pressure Visibility Wind Dir Wind Speed Gust Speed Precip Events Conditions
12:16 AM 46.6 °F - 0.3 °F 15% 30.05 in 10.0 mi WNW 10.4 mph - N/A   Clear
12:36 AM 43.3 °F 38.1 °F 1.2 °F 17% 30.05 in 10.0 mi WNW 9.2 mph - N/A   Clear
12:56 AM 45.0 °F 40.1 °F 0.5 °F 16% 30.07 in 10.0 mi NW 9.2 mph - N/A   Clear
1:16 AM 48.7 °F - -0.4 °F 13% 30.08 in 10.0 mi NW 10.4 mph 19.6 mph N/A   Clear
1:36 AM 47.8 °F - -0.9 °F 13% 30.09 in 10.0 mi WNW 12.7 mph - N/A   Clear
1:56 AM 45.5 °F 43.2 °F -1.7 °F 14% 30.09 in 10.0 mi WNW 4.6 mph - N/A   Clear
2:16 AM 46.2 °F 42.2 °F -1.1 °F 14% 30.10 in 10.0 mi NW 8.1 mph - N/A   Clear
2:36 AM 47.1 °F - -0.9 °F 14% 30.09 in 10.0 mi NNW 6.9 mph 26.5 mph N/A   Clear
2:56 AM 42.8 °F 38.6 °F 0.3 °F 17% 30.09 in 10.0 mi NW 6.9 mph - N/A   Clear
3:16 AM 44.6 °F 38.1 °F 0.7 °F 16% 30.09 in 10.0 mi West 13.8 mph - N/A   Clear
3:36 AM 45.3 °F 41.1 °F 0.7 °F 16% 30.10 in 10.0 mi WNW 8.1 mph - N/A   Clear
3:56 AM 37.6 °F - 2.3 °F 23% 30.10 in 10.0 mi Calm Calm - N/A   Clear
4:16 AM 34.3 °F - 2.8 °F 27% 30.11 in 10.0 mi Calm Calm - N/A   Clear
4:36 AM 30.9 °F 27.5 °F 2.8 °F 30% 30.12 in 10.0 mi South 3.5 mph - N/A   Clear
4:56 AM 31.5 °F - 3.9 °F 31% 30.13 in 10.0 mi Calm Calm - N/A   Clear
5:16 AM 27.0 °F 23.0 °F 4.5 °F 38% 30.13 in 10.0 mi SSE 3.5 mph - N/A   Clear
5:36 AM 28.4 °F - 3.4 °F 34% 30.13 in 10.0 mi Calm Calm - N/A   Clear
5:56 AM 25.9 °F - 4.8 °F 41% 30.15 in 10.0 mi Calm Calm - N/A   Clear
6:16 AM 23.7 °F - 5.9 °F 47% 30.15 in 10.0 mi Calm Calm - N/A   Clear
6:36 AM 22.1 °F - 5.9 °F 50% 30.16 in 10.0 mi Calm Calm - N/A   Clear
6:56 AM 23.2 °F - 5.9 °F 48% 30.17 in 10.0 mi Calm Calm - N/A   Clear
7:16 AM 20.1 °F 12.3 °F 7.2 °F 57% 30.18 in 10.0 mi SW 5.8 mph - N/A   Clear
7:36 AM 24.1 °F 19.7 °F 6.8 °F 48% 30.19 in 10.0 mi WSW 3.5 mph - N/A   Clear
7:56 AM 25.5 °F 19.9 °F 8.6 °F 49% 30.18 in 10.0 mi WSW 4.6 mph - N/A   Clear
8:16 AM 35.1 °F 32.2 °F 6.1 °F 30% 30.19 in 10.0 mi SE 3.5 mph - N/A   Clear
8:36 AM 38.7 °F 36.3 °F 6.4 °F 26% 30.20 in 10.0 mi ESE 3.5 mph - N/A   Clear
8:56 AM 45.1 °F - 5.0 °F 19% 30.21 in 10.0 mi Calm Calm - N/A   Clear
9:16 AM 47.5 °F - 2.7 °F 16% 30.22 in 10.0 mi SSE 6.9 mph - N/A   Clear
9:36 AM 49.8 °F - 2.8 °F 15% 30.22 in 10.0 mi SE 8.1 mph - N/A   Clear
9:56 AM 50.0 °F - 2.8 °F 15% 30.23 in 10.0 mi SE 8.1 mph - N/A   Clear
10:16 AM 51.4 °F - 3.0 °F 14% 30.22 in 10.0 mi SE 11.5 mph - N/A   Clear
10:36 AM 52.5 °F - 1.4 °F 12% 30.22 in 10.0 mi ESE 10.4 mph - N/A   Clear
10:56 AM 52.9 °F - 1.2 °F 12% 30.22 in 10.0 mi SE 11.5 mph - N/A   Clear
11:16 AM 54.5 °F - 1.9 °F 12% 30.21 in 10.0 mi SE 8.1 mph - N/A   Clear
11:36 AM 56.1 °F - 1.8 °F 11% 30.20 in 10.0 mi SE 8.1 mph - N/A   Clear
11:56 AM 56.8 °F - -0.0 °F 10% 30.19 in 10.0 mi SE 9.2 mph - N/A   Clear
12:16 PM 57.7 °F - 0.3 °F 10% 30.17 in 10.0 mi SE 9.2 mph - N/A   Clear
12:36 PM 58.1 °F - -0.8 °F 9% 30.17 in 10.0 mi SE 9.2 mph - N/A   Clear
12:56 PM 59.0 °F - -1.3 °F 9% 30.15 in 10.0 mi SE 9.2 mph - N/A   Clear
1:16 PM 59.5 °F - -1.1 °F 9% 30.15 in 10.0 mi SSE 6.9 mph - N/A   Clear
1:36 PM 60.3 °F - -1.5 °F 8% 30.14 in 10.0 mi ESE 5.8 mph - N/A   Clear
1:56 PM 60.8 °F - -1.1 °F 8% 30.14 in 10.0 mi SSE 8.1 mph - N/A   Clear
2:16 PM 60.8 °F - -1.5 °F 8% 30.13 in 10.0 mi South 6.9 mph - N/A   Clear
2:36 PM 61.3 °F - -1.3 °F 8% 30.13 in 10.0 mi South 9.2 mph - N/A   Clear
2:56 PM 61.7 °F - -7.2 °F 6% 30.13 in 10.0 mi WSW 10.4 mph 18.4 mph N/A   Clear
3:16 PM 60.8 °F - -4.2 °F 7% 30.13 in 10.0 mi West 16.1 mph 20.7 mph N/A   Clear
3:36 PM 59.5 °F - -4.5 °F 7% 30.13 in 10.0 mi West 18.4 mph 25.3 mph N/A   Clear
3:56 PM 55.9 °F - -4.4 °F 8% 30.14 in 10.0 mi West 16.1 mph 23.0 mph N/A   Clear
4:16 PM 53.1 °F - -3.5 °F 10% 30.14 in 10.0 mi West 16.1 mph - N/A   Clear
4:36 PM 53.6 °F - -2.7 °F 10% 30.15 in 10.0 mi West 16.1 mph 20.7 mph N/A   Clear
4:56 PM 51.3 °F - -3.1 °F 11% 30.16 in 10.0 mi West 16.1 mph 21.9 mph N/A   Clear
5:16 PM 49.3 °F - -3.1 °F 11% 30.16 in 10.0 mi West 13.8 mph - N/A   Clear
5:36 PM 48.7 °F - -3.5 °F 11% 30.16 in 10.0 mi West 12.7 mph - N/A   Clear
5:56 PM 45.9 °F 41.2 °F -4.0 °F 12% 30.16 in 10.0 mi West 9.2 mph - N/A   Clear
6:16 PM 45.0 °F 41.2 °F -4.2 °F 13% 30.16 in 10.0 mi West 6.9 mph - N/A   Clear
6:36 PM 42.6 °F - -4.4 °F 14% 30.16 in 10.0 mi Calm Calm - N/A   Clear
6:56 PM 40.5 °F 37.3 °F -4.4 °F 15% 30.16 in 10.0 mi West 4.6 mph - N/A   Clear
7:16 PM 40.1 °F - -3.6 °F 16% 30.16 in 10.0 mi Calm Calm - N/A   Clear
7:36 PM 39.4 °F - -2.2 °F 17% 30.17 in 10.0 mi Calm Calm - N/A   Clear
7:56 PM 34.9 °F - -1.1 °F 22% 30.18 in 10.0 mi Calm Calm - N/A   Clear
8:16 PM 36.5 °F - -0.9 °F 21% 30.18 in 10.0 mi Calm Calm - N/A   Clear
8:36 PM 32.2 °F - 0.3 °F 26% 30.18 in 10.0 mi Calm Calm - N/A   Clear
8:56 PM 33.1 °F 27.7 °F 1.4 °F 26% 30.17 in 10.0 mi North 5.8 mph - N/A   Clear
9:16 PM 30.4 °F - 1.4 °F 29% 30.17 in 10.0 mi Calm Calm - N/A   Clear
9:36 PM 29.5 °F - 1.9 °F 31% 30.17 in 10.0 mi Calm Calm - N/A   Clear
9:56 PM 28.6 °F 23.5 °F 2.5 °F 33% 30.17 in 10.0 mi North 4.6 mph - N/A   Clear
10:16 PM 26.1 °F - 6.4 °F 43% 30.18 in 10.0 mi Calm Calm - N/A   Clear
10:36 PM 27.1 °F - 7.7 °F 44% 30.16 in 10.0 mi Calm Calm - N/A   Clear
10:56 PM 24.6 °F - 10.2 °F 54% 30.17 in 10.0 mi Calm Calm - N/A   Clear
11:16 PM 25.7 °F - 10.8 °F 53% 30.17 in 10.0 mi Calm Calm - N/A   Clear
11:36 PM 23.7 °F - 9.9 °F 56% 30.16 in 10.0 mi Calm Calm - N/A   Clear
11:56 PM 22.3 °F - 9.9 °F 59% 30.16 in 10.0 mi Calm Calm - N/A   Clear